When you browse on this site, cookies collect data to enhance your experience and personalize the content and advertising you see.
Visit our Privacy Policy to learn more. By continuing to use the site, you agree to this use of cookies and data.
  • In Romania
  • List of Countries
  • For 7 days
  • Water Temperature
  • Satellite Maps
  • Weather Map
  • Weather Widgets
  • user-avatar
    Login

    Hourly Weather Galway

    Today, 21 January, Monday

    Time Temperature Precipitation Wind Pressure Humidity
    00:00 +2°C° 0 mm 2 mps 769 mmHg 83%
    01:00 +3°C° 0 mm 2 mps 768 mmHg 84%
    02:00 +2°C° 0 mm 3 mps 768 mmHg 85%
    03:00 +1°C° 0 mm 4 mps 767 mmHg 85%
    04:00 +1°C° 0 mm 4 mps 766 mmHg 85%
    05:00 +1°C° 0 mm 5 mps 766 mmHg 85%
    06:00 +2°C° 0 mm 5 mps 765 mmHg 84%
    07:00 +2°C° 0 mm 6 mps 764 mmHg 83%
    08:00 +3°C° 0 mm 7 mps 763 mmHg 82%
    09:00 +2°C° 0.1 mm 8 mps 761 mmHg 81%
    10:00 +3°C° 0.1 mm 9 mps 760 mmHg 80%
    11:00 +5°C° 0.1 mm 10 mps 758 mmHg 78%
    12:00 +5°C° 2.1 mm 10 mps 757 mmHg 82%
    13:00 +3°C° 2.1 mm 10 mps 756 mmHg 85%
    14:00 +3°C° 2.1 mm 10 mps 755 mmHg 88%
    15:00 +2°C° 0.5 mm 9 mps 755 mmHg 83%
    16:00 +1°C° 0.5 mm 8 mps 755 mmHg 78%
    17:00 +1°C° 0.5 mm 6 mps 755 mmHg 73%
    18:00 +2°C° 0.3 mm 7 mps 755 mmHg 74%
    19:00 +1°C° 0.3 mm 8 mps 755 mmHg 75%
    20:00 +1°C° 0.3 mm 8 mps 755 mmHg 76%
    21:00 0°C° 0.2 mm 8 mps 755 mmHg 76%
    22:00 0°C° 0.2 mm 7 mps 755 mmHg 76%
    23:00 +1°C° 0.2 mm 6 mps 754 mmHg 76%

    Tomorrow, 22 January, Tuesday

    Time Temperature Precipitation Wind Pressure Humidity
    00:00 +1°C° 0.3 mm 6 mps 754 mmHg 77%
    01:00 +1°C° 0.3 mm 6 mps 753 mmHg 79%
    02:00 +1°C° 0.3 mm 6 mps 753 mmHg 81%
    03:00 +1°C° 0.3 mm 6 mps 753 mmHg 81%
    04:00 +1°C° 0.3 mm 6 mps 753 mmHg 80%
    05:00 -1°C° 0.3 mm 6 mps 753 mmHg 80%
    06:00 -1°C° 0.2 mm 6 mps 753 mmHg 80%
    07:00 -1°C° 0.2 mm 6 mps 753 mmHg 80%
    08:00 -1°C° 0.2 mm 6 mps 753 mmHg 80%
    09:00 +1°C° 0.1 mm 6 mps 753 mmHg 79%
    10:00 +1°C° 0.1 mm 6 mps 753 mmHg 79%
    11:00 +2°C° 0.1 mm 6 mps 753 mmHg 78%
    12:00 +2°C° 0.1 mm 6 mps 753 mmHg 78%
    13:00 +2°C° 0.1 mm 5 mps 753 mmHg 79%
    14:00 +2°C° 0.1 mm 5 mps 753 mmHg 79%
    15:00 +3°C° 0.1 mm 4 mps 753 mmHg 81%
    16:00 +2°C° 0.1 mm 3 mps 753 mmHg 83%
    17:00 +2°C° 0.1 mm 3 mps 753 mmHg 85%
    18:00 +2°C° 0 mm 3 mps 753 mmHg 86%
    19:00 +3°C° 0 mm 2 mps 754 mmHg 86%
    20:00 +3°C° 0 mm 2 mps 754 mmHg 87%
    21:00 +3°C° 0 mm 2 mps 754 mmHg 87%
    22:00 +3°C° 0 mm 2 mps 754 mmHg 88%
    23:00 +3°C° 0 mm 2 mps 755 mmHg 88%

    Day after tomorrow, 23 January, Wednesday

    Time Temperature Precipitation Wind Pressure Humidity
    00:00 +3°C° 0 mm 2 mps 755 mmHg 89%
    01:00 +4°C° 0 mm 1 mps 755 mmHg 90%
    02:00 +4°C° 0 mm 1 mps 755 mmHg 91%
    03:00 +4°C° 0.1 mm 1 mps 755 mmHg 92%
    04:00 +5°C° 0.1 mm 1 mps 755 mmHg 93%
    05:00 +5°C° 0.1 mm 1 mps 755 mmHg 94%
    06:00 +5°C° 0.1 mm 1 mps 756 mmHg 94%
    07:00 +4°C° 0.1 mm 0 mps 756 mmHg 94%
    08:00 +4°C° 0.1 mm 0 mps 756 mmHg 94%
    09:00 +5°C° 0 mm 0 mps 757 mmHg 93%
    10:00 +5°C° 0 mm 0 mps 757 mmHg 92%
    11:00 +7°C° 0 mm 1 mps 757 mmHg 90%
    12:00 +7°C° 0 mm 1 mps 757 mmHg 90%
    13:00 +7°C° 0 mm 1 mps 757 mmHg 90%
    14:00 +7°C° 0 mm 2 mps 758 mmHg 90%
    15:00 +6°C° 0 mm 2 mps 758 mmHg 92%
    16:00 +5°C° 0 mm 2 mps 758 mmHg 94%
    17:00 +5°C° 0 mm 2 mps 759 mmHg 96%
    18:00 +5°C° 0.1 mm 2 mps 759 mmHg 96%
    19:00 +5°C° 0.1 mm 2 mps 759 mmHg 97%
    20:00 +6°C° 0.1 mm 2 mps 760 mmHg 97%
    21:00 +5°C° 0.1 mm 3 mps 760 mmHg 98%
    22:00 +7°C° 0.1 mm 3 mps 760 mmHg 98%
    23:00 +7°C° 0.1 mm 3 mps 760 mmHg 98%

    24 January, Thursday

    Time Temperature Precipitation Wind Pressure Humidity
    00:00 +8°C° 0.1 mm 3 mps 760 mmHg 98%
    01:00 +8°C° 0.1 mm 4 mps 760 mmHg 97%
    02:00 +8°C° 0.1 mm 4 mps 760 mmHg 97%
    03:00 +10°C° 0.2 mm 4 mps 760 mmHg 97%
    04:00 +9°C° 0.2 mm 5 mps 760 mmHg 96%
    05:00 +9°C° 0.2 mm 5 mps 760 mmHg 96%
    06:00 +9°C° 0 mm 5 mps 760 mmHg 96%
    07:00 +9°C° 0 mm 5 mps 761 mmHg 95%
    08:00 +9°C° 0 mm 5 mps 761 mmHg 95%
    09:00 +9°C° 0 mm 5 mps 762 mmHg 93%
    10:00 +9°C° 0 mm 5 mps 762 mmHg 92%
    11:00 +10°C° 0 mm 5 mps 763 mmHg 90%
    12:00 +9°C° 0 mm 5 mps 763 mmHg 89%
    13:00 +9°C° 0 mm 5 mps 763 mmHg 89%
    14:00 +9°C° 0 mm 5 mps 763 mmHg 88%
    15:00 +9°C° 0 mm 5 mps 763 mmHg 88%
    16:00 +8°C° 0 mm 4 mps 763 mmHg 88%
    17:00 +8°C° 0 mm 4 mps 763 mmHg 88%
    18:00 +8°C° 0 mm 4 mps 763 mmHg 89%
    19:00 +8°C° 0 mm 5 mps 763 mmHg 89%
    20:00 +9°C° 0 mm 5 mps 763 mmHg 89%
    21:00 +8°C° 0 mm 5 mps 763 mmHg 89%
    22:00 +8°C° 0 mm 5 mps 763 mmHg 90%
    23:00 +8°C° 0 mm 6 mps 763 mmHg 90%

    25 January, Friday

    Time Temperature Precipitation Wind Pressure Humidity
    00:00 +8°C° 0 mm 6 mps 763 mmHg 90%
    01:00 +8°C° 0 mm 6 mps 763 mmHg 90%
    02:00 +8°C° 0 mm 6 mps 763 mmHg 91%
    03:00 +8°C° 0 mm 6 mps 762 mmHg 91%
    04:00 +8°C° 0 mm 6 mps 762 mmHg 91%
    05:00 +8°C° 0 mm 6 mps 762 mmHg 92%
    06:00 +8°C° 0.1 mm 6 mps 762 mmHg 92%
    07:00 +8°C° 0.1 mm 6 mps 762 mmHg 92%
    08:00 +9°C° 0.1 mm 7 mps 762 mmHg 93%
    09:00 +9°C° 0.2 mm 7 mps 762 mmHg 93%
    10:00 +9°C° 0.2 mm 7 mps 762 mmHg 93%
    11:00 +10°C° 0.2 mm 7 mps 761 mmHg 93%
    12:00 +10°C° 0.2 mm 7 mps 761 mmHg 93%
    13:00 +10°C° 0.2 mm 6 mps 761 mmHg 94%
    14:00 +10°C° 0.2 mm 6 mps 760 mmHg 95%
    15:00 +9°C° 0.1 mm 5 mps 760 mmHg 95%
    16:00 +10°C° 0.1 mm 4 mps 760 mmHg 95%
    17:00 +9°C° 0.1 mm 3 mps 760 mmHg 95%
    18:00 +9°C° 1 mm 3 mps 759 mmHg 96%
    19:00 +9°C° 1 mm 3 mps 758 mmHg 96%
    20:00 +8°C° 1 mm 4 mps 758 mmHg 97%
    21:00 +8°C° 2.4 mm 5 mps 757 mmHg 96%
    22:00 +8°C° 2.4 mm 6 mps 756 mmHg 96%
    23:00 +8°C° 2.4 mm 7 mps 755 mmHg 95%

    26 January, Saturday

    Time Temperature Precipitation Wind Pressure Humidity
    00:00 +8°C° 1.4 mm 6 mps 754 mmHg 95%
    01:00 +8°C° 1.4 mm 6 mps 753 mmHg 95%
    02:00 +8°C° 1.4 mm 6 mps 752 mmHg 95%
    03:00 +6°C° 4.3 mm 8 mps 752 mmHg 92%
    04:00 +3°C° 4.3 mm 10 mps 752 mmHg 90%
    05:00 0°C° 4.3 mm 12 mps 751 mmHg 87%
    06:00 +1°C° 0.4 mm 10 mps 753 mmHg 85%
    07:00 +1°C° 0.4 mm 9 mps 754 mmHg 83%
    08:00 +2°C° 0.4 mm 7 mps 756 mmHg 81%
    09:00 +2°C° 0 mm 8 mps 756 mmHg 78%
    10:00 +2°C° 0 mm 8 mps 757 mmHg 75%
    11:00 +3°C° 0 mm 9 mps 758 mmHg 72%
    12:00 +3°C° 0.1 mm 9 mps 758 mmHg 71%
    13:00 +3°C° 0.1 mm 9 mps 758 mmHg 70%
    14:00 +3°C° 0.1 mm 9 mps 758 mmHg 69%
    15:00 +2°C° 0.1 mm 8 mps 758 mmHg 71%
    16:00 +2°C° 0.1 mm 8 mps 758 mmHg 72%
    17:00 +2°C° 0.1 mm 7 mps 758 mmHg 74%
    18:00 +2°C° 0 mm 7 mps 759 mmHg 74%
    19:00 +2°C° 0 mm 6 mps 759 mmHg 74%
    20:00 +1°C° 0 mm 6 mps 759 mmHg 75%
    21:00 +2°C° 0 mm 6 mps 758 mmHg 75%
    22:00 +2°C° 0 mm 6 mps 758 mmHg 74%
    23:00 +2°C° 0 mm 6 mps 758 mmHg 74%
    Show more